Location: Newark
(42.7133°N, 87.7910°W)
Time: 17:17:22
(UTC+00:00)

Tiros 1 - Visible Passes

Search period start: 21 October 2019 00:00
Search period end: 31 October 2019 00:00
Orbit: 630 x 664 km, 48.4° (Epoch: 21 October)

Date Brightness Start Highest point End Pass type
(mag) Time Alt. Az. Time Alt. Az. Time Alt. Az.
21 Oct 9.8 08:46:54 17° ENE 08:46:54 17° ENE 08:48:07 10° ENE visible
21 Oct 8.0 10:24:34 31° NW 10:26:13 43° N 10:30:50 10° ENE visible
22 Oct 9.1 09:11:55 27° NE 09:11:55 27° NE 09:14:22 10° ENE visible
22 Oct 7.7 10:49:35 21° NW 10:52:35 53° NNE 10:57:18 10° E visible
23 Oct 8.3 09:36:57 39° NNE 09:36:57 39° NNE 09:40:45 10° ENE visible
23 Oct 7.3 11:14:38 14° WNW 11:18:49 79° NNE 11:23:38 10° ESE visible
24 Oct 7.7 10:02:03 49° N 10:02:31 51° NNE 10:07:14 10° E visible
24 Oct 7.4 11:40:07 10° WNW 11:44:51 60° SSW 11:49:36 10° SE visible
25 Oct 9.9 08:49:30 17° ENE 08:49:30 17° ENE 08:50:41 10° ENE visible
25 Oct 7.2 10:27:11 42° NW 10:28:46 75° NNE 10:33:35 10° ESE visible
26 Oct 9.1 09:14:42 28° ENE 09:14:42 28° ENE 09:17:09 10° E visible
26 Oct 7.2 10:52:23 28° WNW 10:54:51 64° SSW 10:59:36 10° SE visible
27 Oct 8.1 09:39:59 48° E 09:39:59 48° E 09:43:32 10° ESE visible
27 Oct 8.1 11:17:40 17° W 11:20:43 33° SW 11:25:00 10° SSE visible
28 Oct 7.3 10:05:21 62° S 10:05:21 62° S 10:09:36 10° SE visible
28 Oct 9.0 11:43:34 10° W 11:46:23 16° SW 11:49:12 10° SSW visible
29 Oct 10.1 08:53:06 12° ESE 08:53:06 12° ESE 08:53:28 10° ESE visible
29 Oct 7.9 10:30:48 35° SW 10:30:48 35° SW 10:35:04 10° SSE visible
30 Oct 9.7 09:18:40 16° SE 09:18:40 16° SE 09:19:35 10° SE visible
30 Oct 8.9 10:56:21 17° SW 10:56:24 17° SW 10:59:28 10° S visible
